User: anonymous   Login
Location: Unspecified
(0.0000°N, 0.0000°E)
Time: 11:10:23
(UTC+00:00)
Language:

USA 229 - Orbit

View from above orbital plane
View from above orbital plane
View from above satellite
View from above satellite

Ground track
Ground track

The orbit data is extracted from the following two-line orbital elements,

1 37386U 11014A   17141.90229392 0.00000020  00000-0  35817-4 0    07
2 37386  63.4380  83.2517 0065000   4.2489 355.7511 13.40732884    04
Epoch (UTC): 21 May 2017 21:39:18
Eccentricity: 0.0065000
inclination: 63.4380°
perigee height: 1058 km
apogee height: 1155 km
right ascension of ascending node: 83.2517°
argument of perigee: 4.2489°
revolutions per day: 13.40732884
mean anomaly at epoch: 355.7511°
orbit number at epoch: 0

The dashed part of the orbit path shows where the satellite is in the earth's shadow,  

DLR